Hlavní strana
METAR-TAF:

METAR-TAF

Letiště :

Capital City Airport

Frankfort, Kentucky, Spojené státy americké

zeměpisná šířka: 38-11-05N, zeměpisná délka: 084-54-12W, výška: 245 m

Aktuální stav počasí

Zpráva byla vytvořena před 1 hodinou a 6 minutami, v 11:53 UTC
Jihozápadní vítr 4 kt
Teplota 8°C
Vlhkost vzduchu 81%
Tlak 1014 hPa
Viditelnost: 16.1 km
Jasno

METAR: KFFT 191153Z AUTO 23004KT 10SM CLR 08/05 A2995 RMK AO2 SLP140 T00780050 10094 20067 53014

Čas: 08:59 (12:59 UTC)


TAF: chybějící

Stav a předpovědi počasí z více než 4 000 letišť (zprávy METAR a TAF).

Červené a žluté tečky na mapě představují dostupné meteorologické stanice.

Když kurzor umístíte na tečku, zobrazí se název stanice.

Pak kliknutím zobrazíte stav a předpověď počasí.

Chcete-li změnit mapu, kliknutím na zelené tlačítko se znaménkem +mapu přiblížíte, kliknutím na zelené tlačítko se znaménkem – mapu oddálíte a kliknutím na zelené šipky přejdete na sousední mapy.


METAR-TAF: